Вернуться в каталог

THORAD DELTA 1 DEB

АктивенLEO
NORAD 8593·DEBRIS·🇺🇸 United States

Запущен Nov 15, 1974 с Vandenberg Space Force Base

Loading…

Ближайшие Пролёты (ближайшие 24 часа)

TLE

СвежийSource: Space-Track

Эпоха: Sep 14, 2026, 08:57 UTC

1 08593U 74089DG  26257.37334078 -.00000050  00000-0 -75020-6 0  9997
2 08593 101.9235 212.9334 0223450 312.1634 203.8951 12.71148432403422

Отслеживайте THORAD DELTA 1 DEB в реальном времени с AllMySat

Download on the App Store